STARLINK-35890, 66835

Orbit data source: Space-Track

STARLINK-35890, 66835 is a payload satellite owned by SpaceX/Seattle (US) in LEO that was launched on Tue, 02 Dec 2025 UTC via an FALCON 9 launch vehicle from the Air Force Western Test Range (AFWTR). Payload-class satellites include a variety of spacecraft equipped with specific instruments for various scientific and technological missions. These include communications satellites like Starlink; space stations such as the ISS; scientific satellites like the Hubble; Earth observation satellites from companies like Planet Labs, Umbra, and HawkEye 360; GPS; miniature CubeSats for education and research; and military/defense satellites.

Loading next visibility...
Identifier
66835, 2025-280Q
Orbit
LEO
Country
Flag of USUS
Related business
Manufacturer
SpaceX/Seattle
Mission
Operational Commercial Communications
Bus & Motor
STARLINK V2MO, Unknown motor
Mass
575 kg wet, ~530 kg dry
Launch date (UTC)
2025-12-02 (7 months ago)
Launch vehicle
FALCON 9
Launch site
Air Force Western Test Range (AFWTR)
Object type
Payload
Rocket body
Debris
Shape & HBR
Box + 2 Pan, 17.7 m
Radar Cross Section
36.964 m², Large (>1 m²)

Expand to show TLE details & history
Last TLE update: 18 hours ago

TLE from 18 hours ago
0 STARLINK-35890
1 66835U 25280Q   26171.15342545  .00003417  00000-0  29396-3 0  9998
2 66835  70.0013  76.1244 0002683 268.4627  91.6224 14.98341360 31422
Epoch: 2026-06-20T03:40Z
TLE epoch observation values (Epoch: 2026-06-20T03:40:55.958Z)
Latitude
-0.00012°
Longitude
112.51906°
Altitude
574.498 km
Speed
7.574 km/s
True Right ascension
05h 04m 29s
True Declination
0° 00' 00"
Sunlit
Object was in daylight at epoch
Visualization orbit readout
Latitude
Unknown
Longitude
Unknown
Altitude
Unknown
Speed
Unknown
Apparent Right ascension
Unknown
Apparent Declination
Unknown
Sunlit
N/A
Visualization observer readout
Local Sidereal Time
08:32:34
Azimuth
Unknown
Elevation
Unknown
Doppler factor
Unknown
Orbital elements
Apogee altitude
571.833 km
Perigee altitude
568.105 km
Semi-major axis
6,948.106 km
Eccentricity
0.00027
Inclination
70.0013°
RAAN
76.1244°
Arg. of periapsis
268.4627°
True anomaly
91.65313°
Mean anomaly
91.6224°
Eccentric anomaly
91.63777°
Mean motion
3.74752 °/min
Orbital period
96.06 mins
BSTAR
0.00029396
Loading maneuver chart data...
Computing Atmospheric mass density...
Loading historical data...
Loading historical data...
Loading historical data...
Loading historical data...
Loading historical data...
Loading historical data...
Loading historical data...

Documentation

Showing up to 5 results
|